Flag for Taiwan Weather past 2 weeks in Kaohsiung, Taiwan

Now
75 °F

Partly cloudy.


Feels Like: 73 °F
Forecast: 78 / 87 °F
Wind: 6 mph from East

Location: Kaohsiung International Airport

Current Time: Sep 1, 2015 at 4:11:04 AM

Latest Report: Sep 1, 2015 at 3:00 AM


Visibility: N/A

Pressure: 29.80 "Hg

Humidity: 100%

Dew point: 75 °F

Location of KaohsiungLocation

Historic Weather in Kaohsiung — Graph

°F

Kaohsiung temperature yesterday

Maximum temperature yesterday: 84 °F (at 9:00 AM)
Minimum temperature yesterday: 75 °F (at 1:00 AM)
Average temperature yesterday: 78 °F

Past Weeks' High & Low Weather Summary

 TemperatureHumidityPressure
High93 °F (Aug 24, 3:30 PM)100% (Aug 19, 5:00 AM)29.86 "Hg (Aug 19, 5:00 AM)
Low73 °F (Aug 29, 3:49 AM)56% (Aug 24, 3:30 PM)29.30 "Hg (Aug 23, 3:00 AM)
Average82 °F88%29.70 "Hg
* Reported Aug 17 2:00 AM — Sep 1 2:00 AM, Kaohsiung, Weather by CustomWeather, © 2015

Note: Actual official high and low records may vary slightly from our data, if they occured in-between our weather recording intervals... More about our weather records

Advertising

Kaohsiung weather history for previous 24 hours

 ConditionsComfort  
Time TempWeatherWind HumidityBarometerVisibility
2:00 AM
Tue, Sep 1
77 °FPartly cloudy.1 mph100%29.80 "HgN/A
1:00 AM77 °FPartly cloudy.2 mph100%29.83 "HgN/A
12:00 AM77 °FSprinkles. Passing clouds.6 mph100%29.83 "Hg5 mi
11:00 PM
Mon, Aug 31
77 °FSprinkles. Mostly cloudy.5 mph100%29.83 "Hg5 mi
10:30 PM77 °FThundershowers. Overcast.5 mph100%29.86 "Hg4 mi
10:03 PM77 °FRain showers. Overcast.6 mph100%29.86 "Hg1 mi
9:30 PM79 °FSprinkles. Overcast.3 mph94%29.86 "Hg6 mi
9:00 PM79 °FPartly cloudy.3 mph94%29.86 "HgN/A
8:30 PM79 °FPartly cloudy.2 mph94%29.83 "HgN/A
8:00 PM79 °FPartly cloudy.3 mph94%29.83 "HgN/A
7:30 PM79 °FPartly cloudy.No wind94%29.83 "HgN/A
7:00 PM79 °FPassing clouds.5 mph94%29.80 "HgN/A
6:30 PM79 °FPassing clouds.5 mph89%29.80 "HgN/A
6:00 PM79 °FPartly sunny.3 mph94%29.80 "HgN/A
5:30 PM79 °FPartly sunny.3 mph89%29.80 "HgN/A
5:00 PM79 °FPartly sunny.6 mph89%29.80 "HgN/A
4:30 PM79 °FPartly sunny.5 mph89%29.80 "HgN/A
4:00 PM77 °FSprinkles. Partly sunny.6 mph100%29.80 "HgN/A
3:30 PM77 °FSprinkles. Partly sunny.8 mph100%29.80 "HgN/A
3:00 PM75 °FSprinkles. Broken clouds.12 mph100%29.80 "Hg6 mi
2:45 PM75 °FSprinkles. Cloudy.9 mph100%29.83 "Hg3 mi
2:30 PM75 °FSprinkles. Cloudy.12 mph100%29.83 "Hg2 mi
2:00 PM75 °FThundershowers. Cloudy.5 mph100%29.83 "Hg3 mi
1:30 PM75 °FThunderstorms. Fog.6 mph100%29.86 "Hg1 mi
1:03 PM77 °FStrong thunderstorms. Fog.10 mph94%29.86 "Hg1 mi
12:30 PM79 °FThunderstorms. Cloudy.2 mph100%29.80 "Hg2 mi
12:00 PM79 °FRain showers. Cloudy.6 mph100%29.83 "Hg2 mi
11:30 AM79 °FSprinkles. Cloudy.5 mph100%29.83 "Hg3 mi
11:00 AM79 °FSprinkles. Cloudy.7 mph100%29.80 "Hg4 mi
10:30 AM79 °FThundershowers. Cloudy.5 mph100%29.83 "Hg2 mi
10:00 AM81 °FThunderstorms. Cloudy.15 mph94%29.83 "Hg1 mi
9:55 AM81 °FThunderstorms. Cloudy.15 mph94%29.83 "Hg1 mi
9:30 AM84 °FScattered showers. Cloudy.3 mph84%29.83 "HgN/A
9:00 AM84 °FBroken clouds.3 mph84%29.80 "HgN/A
8:30 AM82 °FBroken clouds.5 mph84%29.80 "HgN/A
8:00 AM81 °FBroken clouds.5 mph84%29.80 "HgN/A
7:30 AM79 °FPartly sunny.6 mph89%29.80 "HgN/A
7:00 AM79 °FPartly sunny.5 mph89%29.80 "HgN/A
6:30 AM75 °FPartly sunny.3 mph100%29.80 "HgN/A
5:00 AM75 °FPassing clouds.5 mph100%29.77 "HgN/A
4:00 AM75 °FPartly cloudy.3 mph100%29.77 "Hg4 mi
Weather by CustomWeather, © 2015

See weather overviewHow to use our weather pages